JA3VQW-13 Hirakata JP current weather conditions

sailwx.info

Wind from 315

Air temperature 17.2° C
Dewpoint 3.5° C

Last reported at 2016-May-01 22:34 UTC.
Time now 2016-May-01 23:06 UTC

Location: N 34°48' E 135°40'.
View on Google Maps.

See reports from other nearby stations

  
Tides and Currents Weather Stations Pressure Air Temp Water Temp Dewpoint Dewpoint Depression Visibility Wind Speed Wind Dir Waves Ship Positions
date/time (UTC)wind fromknots sea level pressurealtimeterstation pressurevisibilityair tempwater tempwave heightnotes
2016-May-01 22:34 315 17.2
2016-May-01 22:04 315 16.7
2016-May-01 21:34 315 15.6
2016-May-01 21:04 315 15.0
2016-May-01 20:34 315 14.4
2016-May-01 20:04 315 14.4
2016-May-01 19:34 315 15.0
2016-May-01 19:04 315 15.0
2016-May-01 18:34 315 15.0
2016-May-01 18:04 315 15.0
2016-May-01 17:34 315 15.6
2016-May-01 17:04 315 15.6
2016-May-01 16:34 315 15.6
2016-May-01 16:04 315 16.1
2016-May-01 15:34 315 16.7
2016-May-01 15:04 315 17.2
2016-May-01 14:34 315 17.2
2016-May-01 14:04 315 17.8
2016-May-01 13:34 315 17.8
2016-May-01 13:04 315 18.3
2016-May-01 12:34 315 18.3
2016-May-01 12:04 315 18.9
2016-May-01 11:34 315 19.4
2016-May-01 11:04 315 20.0
2016-May-01 10:34 315 20.6
2016-May-01 10:04 315 21.7
2016-May-01 09:34 315 22.2
2016-May-01 09:04 270 23.3
2016-May-01 08:34 292 23.9
2016-May-01 08:04 075 24.4
2016-May-01 07:28 245 0 gusting 5 25.6
2016-May-01 06:58 186 1 gusting 2 25.6
2016-May-01 06:28 296 1 gusting 6 25.6
2016-May-01 05:58 172 0 gusting 4 26.1
2016-May-01 05:28 159 1 gusting 4 26.1
2016-May-01 04:58 208 1 gusting 4 26.1
2016-May-01 04:28 170 26.1
2016-May-01 03:58 170 26.1
2016-May-01 03:28 301 4 gusting 6 25.0
2016-May-01 02:58 266 0 gusting 4 24.4
2016-May-01 02:28 159 0 gusting 2 23.3
2016-May-01 01:58 230 4 gusting 5 22.2
2016-May-01 01:28 172 2 gusting 4 21.7
2016-May-01 00:58 279 4 gusting 5 21.1
2016-May-01 00:28 255 1 gusting 4 20.0
2016-Apr-30 23:58 274 19.4
2016-Apr-30 23:28 227 17.8
2016-Apr-30 22:58 281 16.7
2016-Apr-30 22:28 171 15.6
2016-Apr-30 21:58 135 14.4
2016-Apr-30 21:28 135 13.3
2016-Apr-30 20:58 135 12.8
2016-Apr-30 20:28 135 12.8
2016-Apr-30 19:58 135 12.8
2016-Apr-30 19:28 135 12.8
2016-Apr-30 18:58 135 12.8
2016-Apr-30 18:28 135 13.3
2016-Apr-30 17:58 135 13.9
2016-Apr-30 17:28 131 4 gusting 5 13.9
2016-Apr-30 16:58 135 14.4
2016-Apr-30 16:28 135 14.4
2016-Apr-30 15:58 135 14.4
2016-Apr-30 15:28 135 14.4
2016-Apr-30 14:58 135 14.4
2016-Apr-30 14:28 135 2 gusting 4 15.0
2016-Apr-30 13:58 135 15.0
2016-Apr-30 13:24 119 1 gusting 4 15.6
2016-Apr-30 12:54 095 2 gusting 5 15.6
2016-Apr-30 12:24 315 16.1
2016-Apr-30 11:54 135 17.2
2016-Apr-30 11:24 225 17.8
2016-Apr-30 11:12 180 17.8
2016-Apr-30 10:53 292 18.3
2016-Apr-30 10:41 286 18.3
2016-Apr-30 10:23 277 0 gusting 4 18.3
2016-Apr-30 09:53 291 18.9
2016-Apr-30 09:23 221 1 gusting 4 19.4
2016-Apr-30 08:53 150 2 gusting 5 20.6
2016-Apr-30 08:23 288 1 gusting 5 22.2
2016-Apr-30 07:53 221 0 gusting 5 22.8
2016-Apr-30 07:23 150 1 gusting 5 23.3
2016-Apr-30 06:53 164 4 gusting 4 23.3
2016-Apr-30 06:23 295 4 gusting 5 23.9
2016-Apr-30 05:53 196 2 gusting 5 23.3
2016-Apr-30 05:23 211 2 gusting 6 22.8
2016-Apr-30 04:53 312 14.4
2016-Apr-30 04:23 315 14.4
2016-Apr-30 03:53 315 14.4
2016-Apr-30 03:23 315 14.4
2016-Apr-30 02:53 315 14.4
2016-Apr-30 02:23 315 14.4
2016-Apr-30 01:53 315 14.4
2016-Apr-30 01:23 315 14.4
2016-Apr-30 00:53 315 14.4
2016-Apr-30 00:31 315 14.4
2016-Apr-30 00:01 315 14.4
2016-Apr-29 23:31 315 14.4
2016-Apr-29 23:01 315 14.4